EW7186 Weather Reports


Display with metric or nautical units.
time (UTC)temp
F
wind
direction
speed
MPH
gust
MPH
rain 1hr
in
rain 24hr
in
rain mn
in
humidity
%
barometer
mb
20260905230103 71 0 0.0 1.0 0.00 0.70 0.70 78 1011.8
20260905224559 72 0 0.0 0.0 0.10 0.70 0.70 78 1010.9
20260905223102 72 0 0.0 1.0 0.29 0.70 0.70 79 1009.9
20260905221605 72 214 0.0 3.0 0.43 0.70 0.70 79 1010.2
20260905220059 71 243 0.0 4.0 0.70 0.70 0.70 83 1011.2
20260905214605 71 230 0.0 5.0 0.58 0.58 0.58 90 1012.6
20260905213113 77 341 9.0 18.0 0.41 0.41 0.41 88 1013.1
20260905211612 82 15 12.0 29.0 0.27 0.27 0.27 81 1011.2
20260905210112 93 45 7.0 12.0 0.00 0.00 0.00 59 1010.0
20260905204559 94 76 3.0 4.0 0.00 0.00 0.00 57 1009.5
20260905203106 94 49 3.0 4.0 0.00 0.00 0.00 65 1009.1
20260905201604 94 47 3.0 4.0 0.00 0.00 0.00 63 1009.5
20260905200104 95 0 0.0 4.0 0.00 0.00 0.00 53 1009.9
20260905194559 94 53 3.0 5.0 0.00 0.00 0.00 52 1009.9
20260905193103 94 0 0.0 3.0 0.00 0.00 0.00 55 1010.0
20260905191603 93 0 0.0 4.0 0.00 0.00 0.00 56 1010.2
20260905184605 92 62 3.0 5.0 0.00 0.00 0.00 61 1010.6
20260905183118 92 64 3.0 6.0 0.00 0.00 0.00 63 1011.1
20260905181608 91 63 4.0 6.0 0.00 0.00 0.00 62 1011.2
20260905180106 91 65 5.0 7.0 0.00 0.00 0.00 68 1011.4
20260905174557 90 63 4.0 6.0 0.00 0.00 0.00 69 1011.6
20260905173110 90 64 4.0 5.0 0.00 0.00 0.00 67 1011.9
20260905171605 90 63 3.0 6.0 0.00 0.00 0.00 68 1012.0
20260905164558 90 61 3.0 5.0 0.00 0.00 0.00 65 1012.7
20260905163108 90 63 3.0 6.0 0.00 0.00 0.00 67 1012.9
20260905161604 89 0 2.0 5.0 0.00 0.00 0.00 63 1013.0
20260905160100 89 334 2.0 4.0 0.00 0.00 0.00 66 1013.3
20260905154607 89 0 0.0 3.0 0.00 0.00 0.00 66 1013.2
20260905153111 88 259 2.0 6.0 0.00 0.00 0.00 68 1013.4
20260905151608 87 333 2.0 6.0 0.00 0.00 0.00 70 1013.5
20260905150105 86 330 3.0 6.0 0.00 0.00 0.00 72 1013.6
20260905144602 86 337 0.0 4.0 0.00 0.00 0.00 74 1013.8
20260905143105 85 0 0.0 2.0 0.00 0.00 0.00 75 1014.0
20260905141623 85 287 1.0 4.0 0.00 0.00 0.00 76 1013.9
20260905140106 84 239 1.0 3.0 0.00 0.00 0.00 80 1013.9
20260905134604 83 0 0.0 2.0 0.00 0.00 0.00 82 1013.8
20260905133102 82 0 0.0 3.0 0.00 0.00 0.00 83 1014.1
20260905131615 81 0 0.0 2.0 0.00 0.00 0.00 85 1014.1
20260905130106 80 248 0.0 4.0 0.00 0.00 0.00 87 1014.1
20260905124604 78 0 0.0 2.0 0.00 0.00 0.00 89 1014.2
20260905123106 77 226 0.0 4.0 0.00 0.00 0.00 91 1014.0
20260905121603 76 233 1.0 3.0 0.00 0.00 0.00 91 1013.8
20260905120105 75 216 1.0 2.0 0.00 0.00 0.00 91 1013.7
20260905114558 75 0 0.0 0.0 0.00 0.00 0.00 91 1013.7
20260905113103 75 0 0.0 0.0 0.00 0.00 0.00 90 1013.6
20260905111604 75 0 0.0 0.0 0.00 0.00 0.00 90 1013.5
20260905110109 75 0 0.0 0.0 0.00 0.00 0.00 90 1013.3
20260905104610 75 0 1.0 2.0 0.00 0.00 0.00 90 1013.2
20260905103101 75 0 0.0 2.0 0.00 0.00 0.00 90 1013.1
20260905101604 75 0 0.0 1.0 0.00 0.00 0.00 90 1013.1
20260905100121 75 0 0.0 0.0 0.00 0.00 0.00 90 1013.0
20260905094602 75 0 0.0 1.0 0.00 0.00 0.00 91 1012.9
20260905093103 75 217 0.0 1.0 0.00 0.00 0.00 91 1013.1
20260905091609 76 0 0.0 0.0 0.00 0.00 0.00 91 1013.2
20260905090137 76 0 0.0 0.0 0.00 0.00 0.00 91 1013.2
20260905084606 76 0 0.0 0.0 0.00 0.00 0.00 91 1013.3
20260905083100 76 0 0.0 1.0 0.00 0.00 0.00 91 1013.3
20260905081609 76 0 1.0 1.0 0.00 0.00 0.00 91 1013.1
20260905080101 76 0 0.0 0.0 0.00 0.00 0.00 91 1013.1
20260905074608 77 0 0.0 0.0 0.00 0.00 0.00 90 1013.1
20260905073106 77 0 0.0 0.0 0.00 0.00 0.00 90 1012.9
20260905071555 77 0 0.0 0.0 0.00 0.00 0.00 90 1013.0
20260905070105 77 0 0.0 0.0 0.00 0.00 0.00 89 1013.1
20260905064602 78 0 0.0 0.0 0.00 0.00 0.00 89 1013.2
20260905063058 78 0 0.0 0.0 0.00 0.00 0.00 89 1013.3
20260905061605 78 0 0.0 0.0 0.00 0.00 0.00 88 1013.4
20260905060104 79 0 0.0 2.0 0.00 0.00 0.00 87 1013.5
20260905054605 79 212 1.0 3.0 0.00 0.00 0.00 86 1013.7
20260905053059 80 0 0.0 1.0 0.00 0.00 0.00 86 1013.9
20260905051556 80 0 0.0 3.0 0.00 0.00 0.00 85 1013.9
20260905050107 81 0 0.0 2.0 0.00 0.00 0.00 84 1013.8
20260905044603 81 237 1.0 4.0 0.00 0.00 0.00 84 1014.2
20260905043059 81 200 0.0 2.0 0.00 0.00 0.00 83 1014.3
20260905041557 82 0 0.0 2.0 0.00 0.00 0.00 83 1014.2
20260905040105 82 0 0.0 2.0 0.00 0.00 0.00 82 1014.3
20260905034601 82 214 0.0 3.0 0.00 0.00 0.00 81 1014.5
20260905033110 83 0 0.0 0.0 0.00 0.00 0.00 81 1014.5
20260905031622 83 0 0.0 3.0 0.00 0.00 0.00 80 1014.5
20260905030058 83 223 0.0 0.0 0.00 0.00 0.00 79 1014.5
20260905024602 83 239 0.0 2.0 0.00 0.00 0.00 79 1014.6
20260905023102 84 0 0.0 2.0 0.00 0.00 0.00 78 1014.6
20260905021602 84 0 0.0 0.0 0.00 0.00 0.00 78 1014.6
20260905020106 84 0 0.0 0.0 0.00 0.00 0.00 77 1014.4
20260905014557 84 0 0.0 1.0 0.00 0.00 0.00 76 1014.5
20260905013058 85 0 0.0 0.0 0.00 0.00 0.00 72 1014.4
20260905011556 85 0 0.0 2.0 0.00 0.00 0.00 71 1014.4
20260905010110 86 221 1.0 2.0 0.00 0.00 0.00 71 1014.2
20260905004604 86 0 0.0 0.0 0.00 0.00 0.00 67 1014.2
20260905003101 87 0 0.0 0.0 0.00 0.00 0.00 64 1013.9
20260905001558 88 0 0.0 0.0 0.00 0.00 0.00 62 1013.9
20260905000108 89 0 0.0 0.0 0.00 0.00 0.00 57 1014.0
20260904234601 90 0 0.0 0.0 0.00 0.00 0.00 54 1013.7
20260904233103 90 0 0.0 0.0 0.00 0.00 0.00 53 1013.5
20260904231559 91 0 0.0 0.0 0.00 0.00 0.00 51 1013.4